Trieste, Italy

10:01 AM CET on February 23, 2018 (GMT +0100)
Trieste

Weather History for LIVT - October, 2013

Change the Weather History Date:

Tuesday, October 8, 2013

  Actual Average Record
Temperature  
Mean Temperature 59 °F -  
Max Temperature 62 °F 62 °F 75 °F (2001)
Min Temperature 56 °F 53 °F 46 °F (2011)
Degree Days  
Heating Degree Days 6    
Growing Degree Days 9 (Base 50)    
Moisture  
Dew Point 49 °F    
Average Humidity 66    
Maximum Humidity 82    
Minimum Humidity 49    
Precipitation  
Precipitation 0.20 in 0.12 in - ()
Sea Level Pressure  
Sea Level Pressure 30.16 in    
Wind  
Wind Speed 14 mph ()    
Max Wind Speed 21 mph    
Max Gust Speed 45 mph    
Visibility 6.4 miles    
Events Rain    
Averages and records for this station are not official NWS values.
T = Trace of Precipitation, MM = Missing Value Source: Averaged Metar Reports

Daily Weather History Graph

Daily Weather History Graph

Search for Another Location

Airport or City:

Trip Planner

Search our weather history database for the weather conditions in past years. The results will help you decide how hot, cold, wet, or windy it might be!

Date:

Astronomy

Oct. 08, 2013 Rise Set
Actual Time 7:12 AM CEST 6:32 PM CEST
Civil Twilight 6:42 AM CEST 7:01 PM CEST
Nautical Twilight 6:08 AM CEST 7:36 PM CEST
Astronomical Twilight 5:33 AM CEST 8:10 PM CEST
Moon 10:59 AM CEST (10/8) 8:41 PM CEST (10/8)
Length of Visible Light 12h 19m
Length of Day
11h 19m
Waxing Crescent, 14% of the Moon is Illuminated
Oct 8
Waxing Crescent
Oct 12
First Quarter
Oct 19
Full
Oct 27
Last Quarter
Nov 3
New

Hourly Weather History & Observations

Time (CEST) Temp. Dew Point Humidity Pressure Visibility Wind Dir Wind Speed Gust Speed Precip Events Conditions
12:55 AM 59.0 °F 48.2 °F 67% 30.18 in 6.2 mi ENE 17.3 mph 44.9 mph N/A   Scattered Clouds
1:55 AM 57.2 °F 50.0 °F 77% 30.21 in 6.2 mi ENE 18.4 mph 35.7 mph N/A Rain Light Rain
2:00 AM 58 °F 49 °F 65% 30.22 in 6 mi ENE 18.4 mph - - Rain Light Rain
2:55 AM 55.4 °F 50.0 °F 82% 30.21 in 6.2 mi Calm Calm - N/A Rain Rain
3:55 AM 59.0 °F 50.0 °F 72% 30.18 in 6.2 mi ENE 20.7 mph 41.4 mph N/A Rain Rain
4:55 AM 57.2 °F 50.0 °F 77% 30.18 in 6.2 mi ENE 20.7 mph 39.1 mph N/A Rain Rain
5:55 AM 59.0 °F 46.4 °F 63% 30.15 in - ENE 19.6 mph 41.4 mph N/A   Clear
6:55 AM 59.0 °F 46.4 °F 63% 30.15 in - ENE 19.6 mph 38.0 mph N/A   Clear
7:55 AM 59.0 °F 46.4 °F 63% 30.15 in 6.2 mi ENE 19.6 mph 40.3 mph N/A   Partly Cloudy
8:00 AM 59 °F 46 °F 51% 30.17 in 6 mi ENE 19.6 mph - -   Partly Cloudy
8:55 AM 60.8 °F 44.6 °F 55% 30.15 in 6.2 mi ENE 20.7 mph 35.7 mph N/A   Partly Cloudy
9:55 AM 60.8 °F 48.2 °F 63% 30.15 in 6.2 mi ENE 19.6 mph 36.8 mph N/A   Partly Cloudy
10:55 AM 59.0 °F 51.8 °F 77% 30.18 in 6.2 mi ENE 16.1 mph 34.5 mph N/A Rain Rain
11:55 AM 57.2 °F 50.0 °F 77% 30.18 in 6.2 mi ENE 15.0 mph 39.1 mph N/A Rain Rain
12:55 PM 60.8 °F 46.4 °F 59% 30.15 in 6.2 mi NE 16.1 mph 34.5 mph N/A   Partly Cloudy
1:55 PM 60.8 °F 48.2 °F 63% 30.12 in 6.2 mi ENE 16.1 mph 33.4 mph N/A Rain Light Rain
2:00 PM 62 °F 47 °F 49% 30.15 in 6 mi ENE 16.1 mph - - Rain Light Rain
2:55 PM 62.6 °F 50.0 °F 63% 30.15 in 6.2 mi East 9.2 mph 24.2 mph N/A Rain Rain
3:55 PM 59.0 °F 53.6 °F 82% 30.15 in 6.2 mi SW 1.2 mph - N/A Rain Rain
4:55 PM 59.0 °F 51.8 °F 77% 30.12 in 6.2 mi NNE 13.8 mph 32.2 mph N/A Rain Light Rain
5:55 PM 59.0 °F 50.0 °F 72% 30.09 in 6.2 mi NE 18.4 mph 44.9 mph N/A Rain Rain
6:55 PM 60.8 °F 48.2 °F 63% 30.12 in 6.2 mi ENE 17.3 mph 33.4 mph N/A   Scattered Clouds
7:55 PM 60.8 °F 48.2 °F 63% 30.15 in 6.2 mi ENE 12.7 mph 28.8 mph N/A   Scattered Clouds
8:00 PM 61 °F 49 °F 54% 30.16 in 12 mi ENE 12.7 mph - -   Partly Cloudy
8:55 PM 59.0 °F 48.2 °F 67% 30.18 in 6.2 mi ESE 3.5 mph - N/A   Mostly Cloudy
9:55 PM 59.0 °F 50.0 °F 72% 30.15 in 6.2 mi East 9.2 mph - N/A   Scattered Clouds
10:55 PM 60.8 °F 48.2 °F 63% 30.15 in 6.2 mi ENE 12.7 mph 28.8 mph N/A   Scattered Clouds
11:55 PM 60.8 °F 48.2 °F 63% 30.15 in 6.2 mi East 15.0 mph 31.1 mph N/A   Scattered Clouds